Hourly Data Report for October 02, 2017

All times are specified in Local Standard Time (LST). Add 1 hour to adjust for Daylight Saving Time where and when it is observed.

SUDBURY A
ONTARIO

46°37'32.000" N
80°47'52.000" W
348.40 m
6068153
71730
YSB

Download Data

Hourly Data (October 2017)
Hourly Data Report for October 2, 2017
Temp Definition
°C
Dew Point Temp Definition
°C
Rel Hum Definition
%
Wind Dir Definition
10's deg

Wind Spd Definition
km/h
Visibility Definition
km
Stn Press Definition
kPa
Hmdx Definition


Wind Chill Definition


Weather Definition


TIME
00:00 Legend Double Dagger 8.7 8.3 97 21 4 24.1 98.49     LegendNANA
01:00 Legend Double Dagger 6.9 6.5 97 17 8 24.1 98.52     Clear
02:00 Legend Double Dagger 7.3 7.0 97 17 9 24.1 98.53     LegendNANA
03:00 Legend Double Dagger 7.5 7.2 97 16 9 24.1 98.52     LegendNANA
04:00 Legend Double Dagger 6.4 6.1 98 36 2 24.1 98.55     Clear
05:00 Legend Double Dagger 6.2 5.9 98 15 8 1.2 98.61     Fog
06:00 Legend Double Dagger 6.5 6.2 98 14 14 24.1 98.61     LegendNANA
07:00 Legend Double Dagger 7.1 6.5 96 14 13 32.2 98.64     Mainly Clear
08:00 Legend Double Dagger 8.2 6.2 87 15 13 32.2 98.70     LegendNANA
09:00 Legend Double Dagger 9.9 7.3 84 14 15 32.2 98.69     LegendNANA
10:00 Legend Double Dagger 13.1 9.4 78 15 14 32.2 98.69     Mostly Cloudy
11:00 Legend Double Dagger 15.2 8.4 64 15 16 32.2 98.70     LegendNANA
12:00 Legend Double Dagger 16.5 7.8 56 18 24 32.2 98.71     LegendNANA
13:00 Legend Double Dagger 17.0 6.7 50 17 22 32.2 98.68     Mostly Cloudy
14:00 Legend Double Dagger 16.7 4.6 44 17 22 32.2 98.63     LegendNANA
15:00 Legend Double Dagger 17.2 4.3 42 18 18 32.2 98.61     LegendNANA
16:00 Legend Double Dagger 16.2 0.9 35 19 27 32.2 98.58     Mostly Cloudy
17:00 Legend Double Dagger 15.8 3.2 43 18 13 32.2 98.60     LegendNANA
18:00 Legend Double Dagger 13.7 4.3 53 16 13 32.2 98.62     LegendNANA
19:00 Legend Double Dagger 12.3 4.7 59 17 13 24.1 98.65     Mostly Cloudy
20:00 Legend Double Dagger 11.7 5.3 65 16 11 24.1 98.64     LegendNANA
21:00 Legend Double Dagger 11.5 4.5 62 16 16 24.1 98.64     LegendNANA
22:00 Legend Double Dagger 11.4 5.1 65 17 19 24.1 98.63     Cloudy
23:00 Legend Double Dagger 12.2 6.3 67 17 22 24.1 98.60     LegendNANA

Notes on Data Quality.

Legend

  • E = Estimated
  • M = Missing
  • NA = Not Available
  • ‡ = Partner data that is not subject to review by the National Climate Archives
Date modified: